Location: Newark
(21.1200°N, 73.4000°E)
Time: 20:18:57
(UTC+00:00)

Explorer 11/Cluster Stage 4 - Pass Details

Date: 26 January 2020
Orbit: 467 x 1259 km, 28.8° (Epoch: 19 February)

Event Time Altitude Azimuth Distance (km) Brightness Sun altitude
Rises 08:12:13 0° 256° (WSW) 4,105 10.6 48.0°
Reaches altitude 10° 08:15:03 10° 258° (WSW) 3,189 10.1 47.8°
Maximum altitude 08:23:15 72° 342° (NNW) 1,307 8.3 47.1°
Drops below altitude 10° 08:31:15 10° 67° (ENE) 3,107 9.4 46.3°
Sets 08:33:59 0° 69° (ENE) 3,996 9.9 46.0°
